Regional Weather Roundup
Issued by NWS Mt. Holly, NJ

Home | Current Version | Previous Version | Text Only | Print | Product List | Glossary On
Versions: 1 2 3 4 5 6 7 8 9 10 11 12 13 14 15 16 17 18 19 20 21 22 23 24 25 26 27 28 29 30 31 32 33 34 35 36 37 38 39 40 41 42 43 44 45 46 47 48 49 50
000
ASUS41 KPHI 300512
RWRPHI

REGIONAL WEATHER ROUNDUP
NATIONAL WEATHER SERVICE MOUNT HOLLY NJ
100 AM EDT MON MAY 30 2016

NOTE:  "FAIR" INDICATES FEW OR NO CLOUDS BELOW 12,000 FEET WITH NO
SIGNIFICANT WEATHER AND/OR OBSTRUCTIONS TO VISIBILITY.

 * = STATION DOES NOT REPORT PRECIPITATION (E.G. RAIN, SNOW, ETC.)
        OR FOG.

NJZ015>026-300600-
SOUTHERN NEW JERSEY

CITY           SKY/WX    TMP DP  RH WIND       PRES   REMARKS
POMONA         RAIN      71  69  93 S7        30.05F
WILDWOOD*      CLOUDY   N/A N/A N/A SE10      30.05F
MILLVILLE      CLOUDY    72  70  93 VRB3      30.04F
WRIGHTSTOWN    CLOUDY    72  70  94 SW5       30.02F
MOUNT HOLLY    LGT RAIN  71  70  96 CALM      30.04F
TRENTON        LGT RAIN  68  65  90 CALM      30.04F

$$
NJZ001>014-300600-
NORTHERN NEW JERSEY

CITY           SKY/WX    TMP DP  RH WIND       PRES   REMARKS
SUSSEX         RAIN      71  64  78 VRB3      30.06R
ANDOVER*         N/A     69  66  90 CALM      30.05F
MORRISTOWN     HVY RAIN  72  66  83 W6        30.05S
NEWARK         RAIN      74  70  87 S7        30.03F
TETERBORO      RAIN      73  68  84 CALM      30.03F
CALDWELL       RAIN      73  70  90 VRB3      30.04F FOG
SOMERVILLE     RAIN      66  64  93 SE3       30.03F FOG
ALLAIRE*       CLOUDY    72  70  93 S5        30.06F
TOMS RIVER*    CLOUDY    72  66  83 S10       30.05F

$$
PAZ043-044-047-054-055-060>062-066>071-300600-
EASTERN PENNSYLVANIA

CITY           SKY/WX    TMP DP  RH WIND       PRES   REMARKS
PHILADELPHIA   RAIN      71  68  90 N3        30.04F FOG
NORTH PHILA    LGT RAIN  69  66  90 CALM      30.05F
BLUE BELL*     CLOUDY    68  66  94 CALM      30.04F
DOYLESTOWN     LGT RAIN  67  67 100 CALM      30.05F
QUAKERTOWN*    CLOUDY    68  68 100 SW3       30.07F
PERKASIE*      LGT RAIN  68  68 100 CALM      30.06F
POTTSTOWN      RAIN      68  66  93 CALM      30.06F FOG
LANCASTER      LGT RAIN  68  67  96 W5        30.04F FOG
COATESVILLE    LGT RAIN  68  68 100 CALM      30.06F
READING        RAIN      72  69  90 SW7       30.03F
ALLENTOWN      LGT RAIN  72  68  88 S8        30.04F
MOUNT POCONO   LGT RAIN  62 N/A N/A CALM      30.09F
HAZLETON       LGT RAIN  64  64 100 CALM      30.11F
LEHIGHTON      RAIN      70  70 100 CALM      30.05F
WILKES BARRE   LGT RAIN  69  64  84 SW6       30.05F

$$
DEZALL-MDZ008-012-015-019-020-300600-
DELAWARE AND EASTERN MARYLAND

CITY           SKY/WX    TMP DP  RH WIND       PRES   REMARKS
WILMINGTON     LGT RAIN  71  69  93 NE3       30.03F
DOVER          CLOUDY    73  73 100 S8        30.02F
GEORGETOWN     CLOUDY    73  71  93 S7        30.05F
EASTON         CLOUDY    74  74 100 SW6       30.07F
PATUXENT       CLOUDY    72  70  93 S5        30.04S
OCEAN CITY     CLOUDY   N/A N/A N/A VRB3      30.05F
WALLOPS ISLAND MOCLDY    72  69  90 S12       30.05F
CAMBRIDGE      CLOUDY    72  70  94 S5        30.03F
SALISBURY      LGT RAIN  73  71  93 S7        30.04F

$$
PAZ001-021-NYZ056-072-MDZ011-DCZ001-300600-
OTHER NEARBY LOCATIONS

CITY           SKY/WX    TMP DP  RH WIND       PRES   REMARKS
HARRISBURG     LGT RAIN  67  62  84 NW13      30.05S
STATE COLLEGE  CLOUDY    64  59  85 CALM      30.06F
WILLIAMSPORT   CLOUDY    73  55  53 SE9       30.02F
BINGHAMTON     LGT RAIN  66  64  93 NW5       30.06S
NEW YORK CITY  CLOUDY    71  66  84 CALM      30.07F
BALTIMORE      CLOUDY    67  64  90 CALM      30.04S
WASHINGTON DC  CLOUDY    68  65  90 NW5       30.04F

$$



USA.gov is the U.S. government's official web portal to all federal, state and local government web resources and services.